SCP
0 0 0 0 0 0 0 0 0 0 0 0 0 0 0 0 0 0 0 0 0 0 0 0 0 0 0 0 0 0 0 0 0 0 0 0 0 0 0 0 0 0 0 0 0 0 0 0 0 0 0 0 0 0
0 0 0 0 0 0 0 0 0 0 0 0 0 0 0 0 0 0 0 0 0 0 0 0 0 0 0 0 0 0 0 0 0 0 0 0 0 0 0 0 0 0 0 0 0 0 0 0 0 0 0 0 0 0
0 0 0 0 0 0 0 0 0 0 0 0 0 0 0 0 0 0 0 0 0 0 0 0 0 0 0 0 0 0 0 0 0 0 0 0 0 0 0 0 0 0 0 0 0 0 0 0 0 0 0 0 0 0
0 0 0 0 0 0 0 0 0 0 0 0 0 0 0 0 0 0 0 0 0 0 0 0 0 0 0 0 0 0 0 0 0 0 0 0 0 0 0 0 0 0 0 0 0 0 0 0 0 0 0 0 0 0
0 0 0 0 0 0 0 0 0 0 0 0 0 0 0 0 0 0 0 0 0 0 0 0 0 0 0 0 0 0 0 0 0 0 0 0 0 0 0 0 0 0 0 0 0 0 0 0 0 0 0 0 0 0
0 0 0 0 0 0 0 0 0 0 0 0 0 0 0 0 0 0 0 0 0 0 0 0 0 0 0 0 0 0 0 0 0 0 0 0 0 0 0 0 0 0 0 0 0 0 0 0 0 0 0 0 0 0
0 0 0 0 0 0 0 0 0 0 0 0 0 0 0 0 0 0 0 0 0 0 0 0 0 0 0 0 0 0 0 0 0 0 0 0 0 0 0 0 0 0 0 0 0 0 0 0 0 0 0 0 0 0
0 0 0 0 0 0 0 0 0 0 0 0 0 0 0 0 0 0 0 0 0 0 0 0 0 0 0 0 0 0 0 0 0 0 0 0 0 0 0 0 0 0 0 0 0 0 0 0 0 0 0 0 0 0
0 0 0 0 0 0 0 0 0 0 0 0 0 0 0 0 0 0 0 0 0 0 0 0 0 0 0 0 0 0 0 0 0 0 0 0 0 0 0 0 0 0 0 0 0 0 0 0 0 0 0 0 0 0
0 0 0 0 0 0 0 0 0 0 0 0 0 0 0 0 0 0 0 0 0 0 0 0 0 0 0 0 0 0 0 0 0 0 0 0 0 0 0 0 0 0 0 0 0 0 0 0 0 0 0 0 0 0
0 0 0 0 0 0 0 0 0 0 0 0 0 0 0 0 0 0 0 0 0 0 0 0 0 0 0 0 0 0 0 0 0 0 0 0 0 0 0 0 0 0 0 0 0 0 0 0 0 0 0 0 0 0
0 0 0 0 0 0 0 0 0 0 0 0 0 0 0 0 0 0 0 0 0 0 0 0 0 0 0 0 0 0 0 0 0 0 0 0 0 0 0 0 0 0 0 0 0 0 0 0 0 0 0 0 0 0
0 0 0 0 0 0 0 0 0 0 0 0 0 0 0 0 0 0 0 0 0 0 0 0 0 0 0 0 0 0 0 0 0 0 0 0 0 0 0 0 0 0 0 0 0 0 0 0 0 0 0 0 0 -0
0 0 0 0 0 0 0 0 0 0 0 0 0 0 0 0 0 0 0 0 0 0 0 0 0 0 0 0 0 0 0 0 0 0 0 0 0 0 0 0 0 0 0 0 0 0 0 0 0 0 0 -0 -0 -0
-0 0 0 0 0 0 0 0 0 0 0 0 0 0 0 0 0 0 0 0 0 0 0 0 0 0 0 0 0 0 0 0 0 0 0 0 0 0 0 0 0 0 0 0 0 0 0 0 0 0 -0 -0 0 -0
0 0 0 0 0 0 0 0 0 0 0 0 0 0 0 0 0 0 0 0 0 0 0 0 0 0 0 0 0 0 0 0 0 0 0 0 0 0 0 0 0 0 0 0 0 0 0 0 0 -0 -0 0 0 0
0 0 0 0 0 0 0 0 0 0 0 0 0 0 0 0 0 0 0 0 0 0 0 0 0 0 0 0 0 0 0 0 0 0 0 0 0 0 0 0 0 0 0 0 0 0 0 0 -0 -0 -0 0 -0 -0
0 0 0 0 0 0 0 0 0 0 0 0 0 0 0 0 0 0 0 0 0 0 0 0 0 0 0 0 0 0 0 0 0 0 0 0 0 0 0 0 0 0 0 0 0 0 0 -0 -0 -0 -0 0 0 -0
0 0 0 0 0 0 0 0 0 0 0 0 0 0 0 0 0 0 0 0 0 0 0 0 0 0 0 0 0 0 0 0 0 0 0 0 0 0 0 0 0 0 0 0 0 0 -0 -0 -0 0 0 0 0 0
-0 -0 0 0 0 0 0 0 0 0 0 0 0 0 0 0 0 0 0 0 0 0 0 0 0 0 0 0 0 0 0 0 0 0 0 0 0 0 0 0 0 0 0 0 0 -0 -0 0 0 0 0 0 0 0
-0 0 0 0 0 0 0 0 0 0 0 0 0 0 0 0 0 0 0 0 0 0 0 0 0 0 0 0 0 0 0 0 0 0 0 0 0 0 0 0 0 0 0 0 0 0 0 0 0 0 0 0 0 0
0 0 0 0 0 0 0 0 0 0 0 0 0 0 0 0 0 0 0 0 0 0 0 0 0 0 0 0 0 0 0 0 0 0 0 0 0 0 0 0 0 0 -0 -0 0 0 0 0 0 0 0 0 0 0
0 0 0 0 0 0 0 0 0 0 0 0 0 0 0 0 0 0 0 0 0 0 0 0 0 0 0 0 0 0 0 0 0 0 0 0 0 0 0 0 0 -0 0 0 0 0 0 0 0 0 0 0 0 0
0 0 0 0 0 0 0 0 0 0 0 0 0 0 0 0 0 0 0 0 0 0 0 0 0 0 0 0 0 0 0 0 0 0 0 0 0 0 0 0 -0 -0 0 0 0 0 0 0 0 0 0 0 0 0
-0 0 0 0 0 0 0 0 0 0 0 0 0 0 0 0 0 0 0 0 0 0 0 0 0 0 0 0 0 0 0 0 0 0 0 0 0 0 0 -0 -0 -0 -0 0 0 0 0 0 0 0 0 -0 0 0
0 0 0 0 0 0 0 0 0 0 0 0 0 0 0 0 0 0 0 0 0 0 0 0 0 0 -0 -0 0 0 0 0 0 0 0 -0 0 -0 0 0 0 -0 -0 -0 0 0 0 0 0 0 0 0 0 0
0 0 0 0 0 0 0 0 0 0 0 0 0 0 0 0 0 0 0 0 0 0 -0 0 0 0 -0 -0 -0 0 0 -0 -0 0 -0 0 0 0 -0 -0 -0 -0 -0 -0 0 0 0 0 0 0 0 0 0 0
0 0 0 -0 0 0 0 0 0 0 0 0 0 0 0 0 0 0 0 0 -0 -0 -0 -0 0 0 -0 -0 -0 -0 0 0 0 0 0 -0 -0 -0 -0 -0 -0 -0 -0 0 0 0 0 0 0 0 0 0 0 0
0 -0 0 -0 -0 -0 -0 -0 -0 -0 0 0 0 0 0 0 0 0 -0 -0 -0 0 -0 -0 -0 -0 -0 0 0 0 0 0 -0 0 0 0 0 0 -0 -0 -0 0 0 0 0 0 0 0 0 0 0 0 0 0
-0 0 -0 -0 -0 -0 -0 -0 -0 -0 0 0 0 -0 0 0 0 0 -0 -0 0 0 -0 0 0 0 0 0 0 0 0 0 0 0 0 0 0 0 0 0 0 0 0 0 0 0 0 0 0 0 0 0 0 0
0 0 0 -0 -0 -0 -0 -0 -0 -0 -0 -0 -0 -0 0 0 0 0 0 0 0 0 0 0 0 0 0 0 0 0 0 0 0 0 0 0 0 0 0 0 0 0 0 0 0 0 0 0 0 0 0 0 0 0
-0 -0 -0 -0 -0 -0 0 0 0 0 -0 -0 -0 -0 -0 -0 -0 0 0 0 0 0 0 0 0 0 0 0 0 0 0 0 0 0 0 0 0 0 0 0 0 0 0 0 0 0 0 0 0 0 0 0 0 0
-0 -0 -0 0 0 0 0 0 0 0 0 0 0 0 0 0 0 0 0 0 0 0 0 0 0 0 0 0 0 0 0 0 0 0 0 0 0 0 0 0 0 0 0 0 0 0 0 0 0 0 0 0 0 0
Wind_Speed_500mb
56 57 56 55 55 52 54 51 49 49 51 48 57 48 48 52 51 51 65 58 56 28 52 41 42 40 20 23 8 9 4 5 5 6 7 7 7 10 2 7 8 9 6 7 5 5 16 15 7 8 21 46 46 49
60 62 59 59 58 59 58 55 54 55 54 51 48 44 59 58 55 53 63 62 60 56 26 14 45 67 57 49 35 25 22 15 16 5 2 4 4 2 7 12 8 9 13 8 18 15 12 33 46 76 58 51 62 53
64 66 66 63 60 56 59 61 55 60 62 56 50 50 49 50 62 56 65 63 55 53 49 60 56 73 72 67 65 38 32 38 31 38 15 8 13 8 11 13 10 12 21 15 23 30 35 63 72 57 69 75 76 72
65 64 65 64 65 64 66 64 63 61 61 57 54 50 54 60 55 57 60 67 66 25 11 34 45 52 47 43 54 73 78 38 38 41 23 10 14 19 13 18 18 17 11 11 26 35 49 59 65 67 64 67 57 52
69 67 68 68 66 67 67 65 67 67 63 60 57 48 50 57 56 50 56 65 64 54 6 9 26 38 35 43 55 56 67 66 49 28 14 18 22 17 11 12 19 24 31 20 29 55 47 56 69 51 44 45 52 57
67 67 66 65 65 67 69 68 63 62 64 63 60 55 54 51 46 46 37 65 69 67 19 6 23 45 50 64 52 56 68 64 40 20 20 32 46 18 10 23 31 46 63 67 49 70 63 65 49 42 37 41 45 52
62 63 63 64 64 63 64 64 64 64 63 63 62 59 56 50 49 52 16 7 22 50 28 6 5 20 46 44 60 63 63 43 40 42 32 36 23 21 14 30 35 56 53 54 53 50 47 34 31 42 46 52 60 69
57 57 59 59 60 60 60 62 64 62 60 59 62 62 60 51 47 56 67 61 32 36 23 6 6 2 26 19 19 33 26 30 25 27 17 13 21 19 18 23 58 50 45 38 34 30 31 40 41 42 49 55 66 76
57 55 55 56 57 58 57 56 57 60 58 57 55 61 52 55 54 57 50 46 55 49 8 9 9 8 21 19 16 14 18 6 13 9 12 18 16 15 15 35 37 30 17 22 28 29 31 34 44 48 54 61 70 82
48 48 49 52 54 57 58 56 54 53 54 50 46 35 17 27 50 31 22 18 36 34 30 7 18 5 28 21 11 7 15 7 6 10 13 10 16 37 30 28 20 20 20 24 27 25 37 44 48 55 60 65 68 77
48 52 54 51 51 54 52 57 59 56 54 58 30 24 18 26 35 21 18 15 14 6 10 11 25 7 21 5 11 20 6 4 5 7 7 4 5 7 23 22 20 19 19 19 22 27 33 42 52 62 70 70 72 74
54 48 46 45 49 51 53 51 51 55 50 63 38 25 34 22 16 11 8 5 7 11 10 9 21 35 18 18 8 10 7 3 10 4 1 4 7 10 13 10 11 13 17 19 25 32 37 42 47 55 63 67 67 68
45 50 50 48 45 45 48 50 44 46 59 48 27 21 18 14 12 15 16 6 1 6 20 18 7 20 16 17 5 5 8 9 5 3 7 10 7 10 6 5 7 13 18 25 30 35 40 45 47 51 59 58 58 61
47 48 47 50 50 44 42 48 50 52 36 29 16 16 14 9 8 8 10 11 14 17 39 26 9 6 7 4 5 7 6 7 2 3 13 5 14 8 5 7 11 15 23 29 34 39 44 47 51 50 48 48 49 53
55 53 44 45 46 43 37 39 45 55 32 20 16 13 10 8 10 19 21 17 17 22 35 12 9 4 2 4 6 5 5 9 12 12 6 13 10 3 5 11 17 23 29 33 37 42 44 44 45 48 41 40 41 46
23 33 39 36 37 41 41 38 40 53 14 12 11 10 9 7 5 10 21 15 28 38 27 10 6 4 6 6 6 14 11 14 9 6 14 13 7 6 9 12 18 25 30 34 35 37 38 37 39 41 38 36 36 35
8 14 22 28 29 32 41 44 34 10 5 8 4 19 19 11 13 14 17 19 38 33 6 6 12 14 5 5 5 9 10 6 8 15 10 5 6 8 12 16 20 24 27 28 30 29 30 30 30 31 34 32 29 26
13 13 18 16 23 29 26 12 11 8 9 6 4 10 13 15 18 15 21 32 26 14 16 8 14 5 11 13 8 6 7 17 10 8 4 5 6 9 14 16 17 20 21 22 24 24 24 25 26 27 27 26 25 24
10 13 14 15 9 5 6 10 12 7 12 9 14 16 12 14 11 15 19 34 21 14 19 9 6 6 7 3 4 9 16 11 7 7 5 4 3 5 8 12 13 13 16 18 19 20 21 19 21 22 22 22 24 26
8 5 14 18 17 7 9 10 10 11 4 5 10 12 11 11 14 17 18 21 19 10 5 5 7 7 7 11 10 9 9 8 6 5 9 4 0 2 6 9 12 14 13 15 17 20 22 21 21 22 21 21 23 26
3 4 14 26 13 12 13 9 11 8 10 8 15 8 8 13 11 6 5 12 5 2 1 6 11 14 11 9 5 4 5 6 6 5 7 9 4 4 6 9 12 13 16 20 23 26 29 30 29 26 25 23 23 23
6 10 11 11 9 10 14 13 13 11 7 7 7 7 7 3 4 1 3 3 3 4 4 7 14 11 7 7 7 7 6 8 9 9 10 11 7 4 2 7 10 12 15 18 21 23 25 26 27 27 26 26 24 24
9 6 9 9 10 11 6 8 6 6 6 3 4 5 4 1 3 2 4 2 1 6 10 11 11 11 12 11 11 12 13 13 12 10 8 6 2 1 5 8 9 12 13 14 16 19 20 20 20 22 23 22 22 23
7 8 13 12 16 5 4 10 7 7 7 4 3 4 2 2 5 6 3 5 6 13 15 13 15 17 15 15 16 15 14 12 10 7 4 1 3 5 7 8 10 11 15 16 17 17 18 19 20 21 21 22 23 25
6 21 14 12 14 9 9 6 7 5 4 4 4 5 4 7 5 2 4 4 17 23 20 18 17 15 13 16 17 15 11 7 6 9 12 12 9 7 8 9 10 10 12 13 13 15 17 19 21 24 25 26 26 27
15 17 10 2 9 6 1 5 4 4 4 4 1 4 3 5 4 7 6 5 10 20 20 22 24 24 21 19 15 10 7 6 6 7 7 7 8 10 10 8 8 7 10 14 17 18 20 23 25 26 27 28 28 27
10 7 11 13 6 6 8 8 6 6 4 5 4 3 5 3 6 6 2 5 9 16 20 21 22 19 12 13 11 7 5 5 7 8 10 11 11 10 9 7 6 7 11 16 21 24 27 29 30 31 31 29 32 34
8 12 6 12 7 8 8 3 3 3 4 4 4 2 10 11 7 1 2 13 16 22 25 24 22 19 15 12 7 4 4 7 9 7 7 8 6 6 4 4 7 12 16 20 24 27 31 34 37 38 37 38 36 36
9 15 10 7 5 7 3 4 4 3 3 1 5 3 6 5 3 2 4 14 17 21 23 23 22 20 16 10 6 3 5 7 8 7 7 7 5 5 7 11 15 20 25 27 27 30 32 35 39 45 46 45 42 40
12 18 6 4 4 2 3 3 3 2 2 5 7 8 9 7 5 8 9 11 16 16 17 20 20 19 14 12 9 9 9 10 11 11 10 8 11 15 18 20 23 26 30 30 30 30 32 36 38 40 42 42 41 41
13 9 4 3 2 2 3 6 10 11 9 6 11 10 10 11 4 2 9 14 19 22 24 24 22 19 15 12 11 13 11 12 11 13 17 20 22 22 22 25 28 30 33 36 39 43 46 48 48 49 49 48 45 45
11 6 2 4 4 5 7 9 4 3 3 3 3 5 7 8 5 5 9 2 12 15 15 16 14 8 12 14 16 15 14 14 16 19 22 23 24 24 27 29 33 38 44 48 52 54 56 57 58 57 59 57 53 50
6 7 5 6 4 3 10 13 5 5 2 2 2 6 6 5 2 10 11 11 3 5 12 14 14 12 11 11 11 12 14 14 16 21 26 31 35 38 41 44 48 53 58 61 63 62 63 63 65 64 61 59 58 57
Wind_Direction_500mb
255 254 253 252 250 255 249 250 248 251 256 252 245 252 252 245 242 240 241 232 220 236 248 241 245 228 206 204 164 203 56 270 64 172 152 222 183 223 152 240 199 158 161 224 72 41 285 196 335 135 278 296 296 291
254 253 251 251 249 250 248 246 246 252 249 247 245 247 248 252 245 238 237 243 240 234 251 233 249 245 248 247 242 217 217 170 183 99 267 89 264 14 187 248 196 268 196 202 187 225 249 284 284 286 292 288 295 286
258 255 256 248 250 250 252 254 251 251 250 252 251 257 254 248 250 245 245 243 225 234 252 255 254 261 256 246 247 232 234 231 230 233 193 210 235 144 246 236 258 241 223 238 263 262 257 269 277 280 285 285 288 289
257 256 255 258 256 253 250 252 248 250 251 249 252 251 254 256 256 246 243 243 236 240 237 249 256 240 257 257 244 238 246 239 248 237 226 229 241 200 250 259 232 240 165 217 253 271 276 272 269 274 284 290 285 279
256 254 252 253 256 256 255 254 255 249 248 250 249 253 253 254 255 252 249 250 247 231 253 231 249 250 257 246 243 237 240 244 237 235 229 243 241 243 236 236 245 228 247 242 257 270 267 276 281 293 290 288 292 292
259 255 253 254 258 258 257 255 255 253 251 248 245 246 249 251 249 246 265 252 247 248 244 233 260 249 255 245 236 241 235 238 222 229 242 242 235 213 246 255 260 260 252 249 253 266 277 279 287 290 290 292 295 298
257 256 255 254 256 257 256 256 253 252 250 247 246 240 246 244 238 231 228 240 233 226 233 242 238 229 231 223 231 232 231 228 233 243 237 237 233 225 255 263 262 258 264 270 265 269 274 284 285 294 299 298 299 300
256 254 254 254 254 255 255 253 252 249 248 246 244 239 237 241 241 241 244 251 233 206 215 224 242 315 195 183 203 218 207 207 223 228 234 236 259 238 249 246 253 260 260 264 263 273 274 284 294 297 302 307 308 310
258 252 253 253 254 254 254 252 249 248 245 244 250 237 229 227 226 237 252 256 254 230 226 203 157 232 186 194 196 188 199 193 223 216 223 205 229 225 218 243 256 252 256 263 279 291 292 293 301 307 312 315 315 315
258 256 255 253 255 255 251 248 246 245 241 238 229 220 212 202 224 226 217 220 206 204 213 196 191 209 171 172 191 171 199 220 204 230 166 222 238 237 237 245 246 260 270 287 304 302 306 307 312 314 316 318 317 315
264 261 261 257 254 249 248 247 244 238 233 220 203 190 175 172 177 187 204 196 191 212 210 171 183 144 193 141 207 206 203 207 223 245 203 194 259 203 228 236 248 264 276 290 296 299 301 304 310 313 315 316 318 319
262 264 260 257 253 252 249 242 231 227 229 205 197 160 169 182 184 185 185 170 179 213 190 158 197 199 184 188 173 186 193 132 234 103 238 275 239 170 198 219 248 269 286 293 300 303 304 307 310 310 313 317 320 320
262 253 254 252 257 249 243 244 232 230 211 191 180 160 180 179 195 185 172 251 181 192 184 177 180 174 171 190 143 165 200 222 106 132 223 227 136 171 186 227 261 287 296 302 306 305 309 312 315 317 319 323 322 322
262 257 255 248 245 245 237 230 226 227 196 181 174 172 189 168 213 180 168 172 202 188 183 168 126 158 143 133 170 142 213 113 98 242 229 214 165 160 196 262 288 300 305 309 313 315 319 321 322 324 324 323 324 326
254 248 251 245 239 238 235 229 222 226 226 205 160 176 175 166 123 166 167 153 182 190 160 118 76 170 291 143 172 120 166 234 210 223 222 159 159 203 292 301 308 312 316 320 321 321 322 324 323 324 329 329 331 332
253 232 229 233 236 229 225 229 230 225 208 202 139 108 71 82 336 160 181 190 181 166 148 118 124 161 229 161 139 213 146 223 243 204 155 169 208 266 292 310 317 317 318 317 319 322 323 325 326 327 331 339 335 335
236 235 229 233 239 233 218 215 215 206 124 97 74 104 112 105 158 163 174 171 170 162 174 137 171 203 96 112 238 188 210 238 162 149 165 224 293 309 314 321 320 317 319 321 321 325 326 326 329 336 336 341 344 346
226 224 212 222 223 168 154 157 148 88 80 59 150 116 116 128 128 143 164 163 166 198 156 190 136 147 177 181 247 218 163 157 150 169 189 287 302 309 315 326 330 327 328 332 333 335 334 341 342 341 342 346 353 358
176 213 203 204 206 124 61 43 43 79 44 47 88 101 93 103 129 160 163 166 179 175 151 151 134 185 221 191 166 156 163 169 168 178 228 218 262 308 328 338 343 349 350 349 354 359 1 356 351 350 351 356 3 7
329 228 205 205 188 137 85 55 66 76 83 110 105 92 88 103 119 123 143 159 159 169 182 182 200 163 127 134 122 135 156 175 192 168 172 171 305 10 7 15 25 24 23 30 26 27 27 28 23 19 15 11 13 18
248 166 164 187 147 92 90 88 71 76 116 95 111 91 77 105 98 121 150 157 207 202 150 118 123 132 133 150 175 189 195 204 196 194 161 176 166 118 56 37 35 28 32 35 34 35 34 29 25 26 27 28 25 22
183 159 125 116 89 81 82 65 103 110 89 99 85 81 82 74 70 112 197 207 80 78 89 124 145 144 150 164 178 178 167 147 144 147 154 168 163 167 63 35 26 21 22 24 24 26 27 26 24 26 29 30 26 24
119 90 68 62 90 60 57 82 87 53 86 84 93 80 34 356 10 49 30 301 202 190 167 157 160 159 152 154 152 148 140 134 133 138 147 152 160 339 345 347 348 360 5 5 8 7 7 13 13 17 20 21 23 23
91 59 39 45 40 79 71 34 57 77 85 49 67 101 309 269 19 47 250 270 191 172 169 164 163 162 155 150 146 141 138 139 137 143 148 119 329 319 321 327 336 338 353 357 359 359 356 1 2 1 2 2 2 5
81 10 19 11 26 48 45 31 16 61 83 9 81 12 341 16 57 10 235 256 188 183 177 174 173 165 159 161 167 168 175 197 238 259 261 262 268 296 315 327 332 338 345 357 359 3 6 6 7 7 5 3 2 360
67 4 41 284 347 75 274 75 44 137 108 59 14 296 3 82 69 252 236 207 195 191 190 186 177 175 180 178 185 202 214 237 270 292 275 263 273 280 294 305 321 339 4 13 12 10 8 7 5 3 1 357 354 352
62 341 20 32 34 89 72 62 93 89 90 139 218 86 76 95 252 256 248 183 173 180 177 177 180 180 185 195 197 208 242 275 294 295 304 295 284 277 271 281 308 328 342 346 347 347 350 351 350 350 349 350 346 342
73 29 72 341 32 36 128 81 84 127 208 190 133 137 151 188 232 29 207 184 173 171 171 173 177 185 189 190 201 237 296 310 314 306 307 306 290 287 278 288 313 324 328 331 332 334 335 336 336 336 337 338 340 336
34 357 352 12 17 48 70 128 199 83 116 117 117 255 255 254 240 214 180 184 187 185 186 189 188 189 194 203 218 281 311 326 328 329 325 327 324 320 321 318 318 318 318 322 324 325 327 328 330 330 331 329 328 326
3 360 27 28 66 337 355 39 49 109 242 261 282 285 277 272 273 258 234 201 198 200 199 197 200 204 213 228 245 269 294 305 310 309 311 315 315 316 313 309 308 309 309 314 318 319 318 320 322 322 321 320 318 315
345 340 343 26 241 2 338 311 290 274 259 264 257 260 283 306 345 9 217 205 200 204 210 215 221 227 239 256 278 281 286 294 306 306 302 303 307 309 306 303 302 300 300 303 307 309 311 312 313 315 317 316 315 313
339 16 43 1 315 339 331 344 303 286 252 264 265 294 309 314 323 66 26 259 228 230 231 234 239 252 257 253 264 283 293 294 295 294 299 305 307 307 304 303 303 301 300 300 300 301 303 304 305 308 310 309 309 307
317 342 338 320 334 15 352 344 23 348 263 303 341 338 336 333 274 33 31 19 18 197 213 219 223 234 256 281 298 304 306 314 318 318 316 310 308 306 303 302 302 302 301 298 296 295 296 297 298 300 301 301 302 303
Wind_Speed_850mb
56 57 56 55 55 52 54 51 49 49 51 48 57 48 48 52 51 51 65 58 56 28 52 41 42 40 20 23 8 9 4 5 5 6 7 7 7 10 2 7 8 9 6 7 5 5 16 15 7 8 21 46 46 49
60 62 59 59 58 59 58 55 54 55 54 51 48 44 59 58 55 53 63 62 60 56 26 14 45 67 57 49 35 25 22 15 16 5 2 4 4 2 7 12 8 9 13 8 18 15 12 33 46 76 58 51 62 53
64 66 66 63 60 56 59 61 55 60 62 56 50 50 49 50 62 56 65 63 55 53 49 60 56 73 72 67 65 38 32 38 31 38 15 8 13 8 11 13 10 12 21 15 23 30 35 63 72 57 69 75 76 72
65 64 65 64 65 64 66 64 63 61 61 57 54 50 54 60 55 57 60 67 66 25 11 34 45 52 47 43 54 73 78 38 38 41 23 10 14 19 13 18 18 17 11 11 26 35 49 59 65 67 64 67 57 52
69 67 68 68 66 67 67 65 67 67 63 60 57 48 50 57 56 50 56 65 64 54 6 9 26 38 35 43 55 56 67 66 49 28 14 18 22 17 11 12 19 24 31 20 29 55 47 56 69 51 44 45 52 57
67 67 66 65 65 67 69 68 63 62 64 63 60 55 54 51 46 46 37 65 69 67 19 6 23 45 50 64 52 56 68 64 40 20 20 32 46 18 10 23 31 46 63 67 49 70 63 65 49 42 37 41 45 52
62 63 63 64 64 63 64 64 64 64 63 63 62 59 56 50 49 52 16 7 22 50 28 6 5 20 46 44 60 63 63 43 40 42 32 36 23 21 14 30 35 56 53 54 53 50 47 34 31 42 46 52 60 69
57 57 59 59 60 60 60 62 64 62 60 59 62 62 60 51 47 56 67 61 32 36 23 6 6 2 26 19 19 33 26 30 25 27 17 13 21 19 18 23 58 50 45 38 34 30 31 40 41 42 49 55 66 76
57 55 55 56 57 58 57 56 57 60 58 57 55 61 52 55 54 57 50 46 55 49 8 9 9 8 21 19 16 14 18 6 13 9 12 18 16 15 15 35 37 30 17 22 28 29 31 34 44 48 54 61 70 82
48 48 49 52 54 57 58 56 54 53 54 50 46 35 17 27 50 31 22 18 36 34 30 7 18 5 28 21 11 7 15 7 6 10 13 10 16 37 30 28 20 20 20 24 27 25 37 44 48 55 60 65 68 77
48 52 54 51 51 54 52 57 59 56 54 58 30 24 18 26 35 21 18 15 14 6 10 11 25 7 21 5 11 20 6 4 5 7 7 4 5 7 23 22 20 19 19 19 22 27 33 42 52 62 70 70 72 74
54 48 46 45 49 51 53 51 51 55 50 63 38 25 34 22 16 11 8 5 7 11 10 9 21 35 18 18 8 10 7 3 10 4 1 4 7 10 13 10 11 13 17 19 25 32 37 42 47 55 63 67 67 68
45 50 50 48 45 45 48 50 44 46 59 48 27 21 18 14 12 15 16 6 1 6 20 18 7 20 16 17 5 5 8 9 5 3 7 10 7 10 6 5 7 13 18 25 30 35 40 45 47 51 59 58 58 61
47 48 47 50 50 44 42 48 50 52 36 29 16 16 14 9 8 8 10 11 14 17 39 26 9 6 7 4 5 7 6 7 2 3 13 5 14 8 5 7 11 15 23 29 34 39 44 47 51 50 48 48 49 53
55 53 44 45 46 43 37 39 45 55 32 20 16 13 10 8 10 19 21 17 17 22 35 12 9 4 2 4 6 5 5 9 12 12 6 13 10 3 5 11 17 23 29 33 37 42 44 44 45 48 41 40 41 46
23 33 39 36 37 41 41 38 40 53 14 12 11 10 9 7 5 10 21 15 28 38 27 10 6 4 6 6 6 14 11 14 9 6 14 13 7 6 9 12 18 25 30 34 35 37 38 37 39 41 38 36 36 35
8 14 22 28 29 32 41 44 34 10 5 8 4 19 19 11 13 14 17 19 38 33 6 6 12 14 5 5 5 9 10 6 8 15 10 5 6 8 12 16 20 24 27 28 30 29 30 30 30 31 34 32 29 26
13 13 18 16 23 29 26 12 11 8 9 6 4 10 13 15 18 15 21 32 26 14 16 8 14 5 11 13 8 6 7 17 10 8 4 5 6 9 14 16 17 20 21 22 24 24 24 25 26 27 27 26 25 24
10 13 14 15 9 5 6 10 12 7 12 9 14 16 12 14 11 15 19 34 21 14 19 9 6 6 7 3 4 9 16 11 7 7 5 4 3 5 8 12 13 13 16 18 19 20 21 19 21 22 22 22 24 26
8 5 14 18 17 7 9 10 10 11 4 5 10 12 11 11 14 17 18 21 19 10 5 5 7 7 7 11 10 9 9 8 6 5 9 4 0 2 6 9 12 14 13 15 17 20 22 21 21 22 21 21 23 26
3 4 14 26 13 12 13 9 11 8 10 8 15 8 8 13 11 6 5 12 5 2 1 6 11 14 11 9 5 4 5 6 6 5 7 9 4 4 6 9 12 13 16 20 23 26 29 30 29 26 25 23 23 23
6 10 11 11 9 10 14 13 13 11 7 7 7 7 7 3 4 1 3 3 3 4 4 7 14 11 7 7 7 7 6 8 9 9 10 11 7 4 2 7 10 12 15 18 21 23 25 26 27 27 26 26 24 24
9 6 9 9 10 11 6 8 6 6 6 3 4 5 4 1 3 2 4 2 1 6 10 11 11 11 12 11 11 12 13 13 12 10 8 6 2 1 5 8 9 12 13 14 16 19 20 20 20 22 23 22 22 23
7 8 13 12 16 5 4 10 7 7 7 4 3 4 2 2 5 6 3 5 6 13 15 13 15 17 15 15 16 15 14 12 10 7 4 1 3 5 7 8 10 11 15 16 17 17 18 19 20 21 21 22 23 25
6 21 14 12 14 9 9 6 7 5 4 4 4 5 4 7 5 2 4 4 17 23 20 18 17 15 13 16 17 15 11 7 6 9 12 12 9 7 8 9 10 10 12 13 13 15 17 19 21 24 25 26 26 27
15 17 10 2 9 6 1 5 4 4 4 4 1 4 3 5 4 7 6 5 10 20 20 22 24 24 21 19 15 10 7 6 6 7 7 7 8 10 10 8 8 7 10 14 17 18 20 23 25 26 27 28 28 27
10 7 11 13 6 6 8 8 6 6 4 5 4 3 5 3 6 6 2 5 9 16 20 21 22 19 12 13 11 7 5 5 7 8 10 11 11 10 9 7 6 7 11 16 21 24 27 29 30 31 31 29 32 34
8 12 6 12 7 8 8 3 3 3 4 4 4 2 10 11 7 1 2 13 16 22 25 24 22 19 15 12 7 4 4 7 9 7 7 8 6 6 4 4 7 12 16 20 24 27 31 34 37 38 37 38 36 36
9 15 10 7 5 7 3 4 4 3 3 1 5 3 6 5 3 2 4 14 17 21 23 23 22 20 16 10 6 3 5 7 8 7 7 7 5 5 7 11 15 20 25 27 27 30 32 35 39 45 46 45 42 40
12 18 6 4 4 2 3 3 3 2 2 5 7 8 9 7 5 8 9 11 16 16 17 20 20 19 14 12 9 9 9 10 11 11 10 8 11 15 18 20 23 26 30 30 30 30 32 36 38 40 42 42 41 41
13 9 4 3 2 2 3 6 10 11 9 6 11 10 10 11 4 2 9 14 19 22 24 24 22 19 15 12 11 13 11 12 11 13 17 20 22 22 22 25 28 30 33 36 39 43 46 48 48 49 49 48 45 45
11 6 2 4 4 5 7 9 4 3 3 3 3 5 7 8 5 5 9 2 12 15 15 16 14 8 12 14 16 15 14 14 16 19 22 23 24 24 27 29 33 38 44 48 52 54 56 57 58 57 59 57 53 50
6 7 5 6 4 3 10 13 5 5 2 2 2 6 6 5 2 10 11 11 3 5 12 14 14 12 11 11 11 12 14 14 16 21 26 31 35 38 41 44 48 53 58 61 63 62 63 63 65 64 61 59 58 57
Wind_Direction_850mb
255 254 253 252 250 255 249 250 248 251 256 252 245 252 252 245 242 240 241 232 220 236 248 241 245 228 206 204 164 203 56 270 64 172 152 222 183 223 152 240 199 158 161 224 72 41 285 196 335 135 278 296 296 291
254 253 251 251 249 250 248 246 246 252 249 247 245 247 248 252 245 238 237 243 240 234 251 233 249 245 248 247 242 217 217 170 183 99 267 89 264 14 187 248 196 268 196 202 187 225 249 284 284 286 292 288 295 286
258 255 256 248 250 250 252 254 251 251 250 252 251 257 254 248 250 245 245 243 225 234 252 255 254 261 256 246 247 232 234 231 230 233 193 210 235 144 246 236 258 241 223 238 263 262 257 269 277 280 285 285 288 289
257 256 255 258 256 253 250 252 248 250 251 249 252 251 254 256 256 246 243 243 236 240 237 249 256 240 257 257 244 238 246 239 248 237 226 229 241 200 250 259 232 240 165 217 253 271 276 272 269 274 284 290 285 279
256 254 252 253 256 256 255 254 255 249 248 250 249 253 253 254 255 252 249 250 247 231 253 231 249 250 257 246 243 237 240 244 237 235 229 243 241 243 236 236 245 228 247 242 257 270 267 276 281 293 290 288 292 292
259 255 253 254 258 258 257 255 255 253 251 248 245 246 249 251 249 246 265 252 247 248 244 233 260 249 255 245 236 241 235 238 222 229 242 242 235 213 246 255 260 260 252 249 253 266 277 279 287 290 290 292 295 298
257 256 255 254 256 257 256 256 253 252 250 247 246 240 246 244 238 231 228 240 233 226 233 242 238 229 231 223 231 232 231 228 233 243 237 237 233 225 255 263 262 258 264 270 265 269 274 284 285 294 299 298 299 300
256 254 254 254 254 255 255 253 252 249 248 246 244 239 237 241 241 241 244 251 233 206 215 224 242 315 195 183 203 218 207 207 223 228 234 236 259 238 249 246 253 260 260 264 263 273 274 284 294 297 302 307 308 310
258 252 253 253 254 254 254 252 249 248 245 244 250 237 229 227 226 237 252 256 254 230 226 203 157 232 186 194 196 188 199 193 223 216 223 205 229 225 218 243 256 252 256 263 279 291 292 293 301 307 312 315 315 315
258 256 255 253 255 255 251 248 246 245 241 238 229 220 212 202 224 226 217 220 206 204 213 196 191 209 171 172 191 171 199 220 204 230 166 222 238 237 237 245 246 260 270 287 304 302 306 307 312 314 316 318 317 315
264 261 261 257 254 249 248 247 244 238 233 220 203 190 175 172 177 187 204 196 191 212 210 171 183 144 193 141 207 206 203 207 223 245 203 194 259 203 228 236 248 264 276 290 296 299 301 304 310 313 315 316 318 319
262 264 260 257 253 252 249 242 231 227 229 205 197 160 169 182 184 185 185 170 179 213 190 158 197 199 184 188 173 186 193 132 234 103 238 275 239 170 198 219 248 269 286 293 300 303 304 307 310 310 313 317 320 320
262 253 254 252 257 249 243 244 232 230 211 191 180 160 180 179 195 185 172 251 181 192 184 177 180 174 171 190 143 165 200 222 106 132 223 227 136 171 186 227 261 287 296 302 306 305 309 312 315 317 319 323 322 322
262 257 255 248 245 245 237 230 226 227 196 181 174 172 189 168 213 180 168 172 202 188 183 168 126 158 143 133 170 142 213 113 98 242 229 214 165 160 196 262 288 300 305 309 313 315 319 321 322 324 324 323 324 326
254 248 251 245 239 238 235 229 222 226 226 205 160 176 175 166 123 166 167 153 182 190 160 118 76 170 291 143 172 120 166 234 210 223 222 159 159 203 292 301 308 312 316 320 321 321 322 324 323 324 329 329 331 332
253 232 229 233 236 229 225 229 230 225 208 202 139 108 71 82 336 160 181 190 181 166 148 118 124 161 229 161 139 213 146 223 243 204 155 169 208 266 292 310 317 317 318 317 319 322 323 325 326 327 331 339 335 335
236 235 229 233 239 233 218 215 215 206 124 97 74 104 112 105 158 163 174 171 170 162 174 137 171 203 96 112 238 188 210 238 162 149 165 224 293 309 314 321 320 317 319 321 321 325 326 326 329 336 336 341 344 346
226 224 212 222 223 168 154 157 148 88 80 59 150 116 116 128 128 143 164 163 166 198 156 190 136 147 177 181 247 218 163 157 150 169 189 287 302 309 315 326 330 327 328 332 333 335 334 341 342 341 342 346 353 358
176 213 203 204 206 124 61 43 43 79 44 47 88 101 93 103 129 160 163 166 179 175 151 151 134 185 221 191 166 156 163 169 168 178 228 218 262 308 328 338 343 349 350 349 354 359 1 356 351 350 351 356 3 7
329 228 205 205 188 137 85 55 66 76 83 110 105 92 88 103 119 123 143 159 159 169 182 182 200 163 127 134 122 135 156 175 192 168 172 171 305 10 7 15 25 24 23 30 26 27 27 28 23 19 15 11 13 18
248 166 164 187 147 92 90 88 71 76 116 95 111 91 77 105 98 121 150 157 207 202 150 118 123 132 133 150 175 189 195 204 196 194 161 176 166 118 56 37 35 28 32 35 34 35 34 29 25 26 27 28 25 22
183 159 125 116 89 81 82 65 103 110 89 99 85 81 82 74 70 112 197 207 80 78 89 124 145 144 150 164 178 178 167 147 144 147 154 168 163 167 63 35 26 21 22 24 24 26 27 26 24 26 29 30 26 24
119 90 68 62 90 60 57 82 87 53 86 84 93 80 34 356 10 49 30 301 202 190 167 157 160 159 152 154 152 148 140 134 133 138 147 152 160 339 345 347 348 360 5 5 8 7 7 13 13 17 20 21 23 23
91 59 39 45 40 79 71 34 57 77 85 49 67 101 309 269 19 47 250 270 191 172 169 164 163 162 155 150 146 141 138 139 137 143 148 119 329 319 321 327 336 338 353 357 359 359 356 1 2 1 2 2 2 5
81 10 19 11 26 48 45 31 16 61 83 9 81 12 341 16 57 10 235 256 188 183 177 174 173 165 159 161 167 168 175 197 238 259 261 262 268 296 315 327 332 338 345 357 359 3 6 6 7 7 5 3 2 360
67 4 41 284 347 75 274 75 44 137 108 59 14 296 3 82 69 252 236 207 195 191 190 186 177 175 180 178 185 202 214 237 270 292 275 263 273 280 294 305 321 339 4 13 12 10 8 7 5 3 1 357 354 352
62 341 20 32 34 89 72 62 93 89 90 139 218 86 76 95 252 256 248 183 173 180 177 177 180 180 185 195 197 208 242 275 294 295 304 295 284 277 271 281 308 328 342 346 347 347 350 351 350 350 349 350 346 342
73 29 72 341 32 36 128 81 84 127 208 190 133 137 151 188 232 29 207 184 173 171 171 173 177 185 189 190 201 237 296 310 314 306 307 306 290 287 278 288 313 324 328 331 332 334 335 336 336 336 337 338 340 336
34 357 352 12 17 48 70 128 199 83 116 117 117 255 255 254 240 214 180 184 187 185 186 189 188 189 194 203 218 281 311 326 328 329 325 327 324 320 321 318 318 318 318 322 324 325 327 328 330 330 331 329 328 326
3 360 27 28 66 337 355 39 49 109 242 261 282 285 277 272 273 258 234 201 198 200 199 197 200 204 213 228 245 269 294 305 310 309 311 315 315 316 313 309 308 309 309 314 318 319 318 320 322 322 321 320 318 315
345 340 343 26 241 2 338 311 290 274 259 264 257 260 283 306 345 9 217 205 200 204 210 215 221 227 239 256 278 281 286 294 306 306 302 303 307 309 306 303 302 300 300 303 307 309 311 312 313 315 317 316 315 313
339 16 43 1 315 339 331 344 303 286 252 264 265 294 309 314 323 66 26 259 228 230 231 234 239 252 257 253 264 283 293 294 295 294 299 305 307 307 304 303 303 301 300 300 300 301 303 304 305 308 310 309 309 307
317 342 338 320 334 15 352 344 23 348 263 303 341 338 336 333 274 33 31 19 18 197 213 219 223 234 256 281 298 304 306 314 318 318 316 310 308 306 303 302 302 302 301 298 296 295 296 297 298 300 301 301 302 303